Nellis AFB, NV

3:24 AM PST on December 14, 2019 (GMT -0800)
Nellis Air Force Base

Weather History for KLSV - September, 2019

Change the Weather History Date:

Thursday, September 12, 2019

  Actual Average Record
Temperature  
Mean Temperature 82 °F -  
Max Temperature 92 °F 94 °F 104 °F (2007)
Min Temperature 70 °F 69 °F 62 °F (2000)
Cooling Degree Days 17    
Growing Degree Days 32 (Base 50)    
Moisture  
Dew Point 29 °F    
Average Humidity 15    
Maximum Humidity 23    
Minimum Humidity 10    
Precipitation  
Precipitation 0.00 in - - ()
Sea Level Pressure  
Sea Level Pressure 30.00 in    
Wind  
Wind Speed 8 mph (NNE)    
Max Wind Speed 16 mph    
Max Gust Speed 22 mph    
Visibility 10 miles    
Events      
Averages and records for this station are not official NWS values.
T = Trace of Precipitation, MM = Missing Value Source: NWS Daily Summary

Daily Weather History Graph

Daily Weather History Graph

Search for Another Location

Airport or City:

Astronomy

Sep. 12, 2019 Rise Set
Actual Time 6:20 AM PDT 6:52 PM PDT
Civil Twilight 5:54 AM PDT 7:17 PM PDT
Nautical Twilight 5:23 AM PDT 7:48 PM PDT
Astronomical Twilight 4:52 AM PDT 8:19 PM PDT
Moon 6:34 PM PDT (9/12) 4:48 AM PDT (9/12)
Length of Visible Light 13h 23m
Length of Day
12h 31m
Waxing Gibbous, 98% of the Moon is Illuminated
Sep 12
Waxing Gibbous
Sep 13
Full
Sep 21
Last Quarter
Sep 28
New
Oct 5
First Quarter

Hourly Weather History & Observations

Time (PDT) Temp. Dew Point Humidity Pressure Visibility Wind Dir Wind Speed Gust Speed Precip Events Conditions
12:58 AM 72.0 °F 26.1 °F 18% 29.97 in 10.0 mi NNW 4.6 mph - N/A   Clear
1:58 AM 74.1 °F 27.9 °F 18% 29.98 in 10.0 mi ENE 9.2 mph - N/A   Clear
2:58 AM 75.9 °F 32.0 °F 20% 29.99 in 10.0 mi NNE 16.1 mph - N/A   Clear
3:58 AM 77.2 °F 36.5 °F 23% 30.01 in 10.0 mi North 15.0 mph - N/A   Clear
4:58 AM 75.6 °F 35.1 °F 23% 30.03 in 10.0 mi NE 9.2 mph - N/A   Clear
5:58 AM 73.2 °F 33.3 °F 23% 30.05 in 10.0 mi Calm Calm - N/A   Clear
7:58 AM 75.6 °F 31.6 °F 20% 30.09 in 10.0 mi Calm Calm - N/A   Clear
8:58 AM 81.5 °F 35.2 °F 19% 30.09 in 10.0 mi North 16.1 mph - N/A   Clear
9:56 AM 83.5 °F 34.0 °F 17% 30.10 in 10.0 mi North 15.0 mph - N/A   Clear
10:56 AM 86.0 °F 32.9 °F 15% 30.09 in 10.0 mi North 10.4 mph 21.9 mph N/A   Clear
11:56 AM 88.0 °F 30.9 °F 13% 30.07 in 10.0 mi NNE 16.1 mph 20.7 mph N/A   Clear
12:58 PM 89.2 °F 30.0 °F 12% 30.05 in 10.0 mi North 13.8 mph - N/A   Partly Cloudy
1:58 PM 90.5 °F 28.8 °F 11% 30.01 in 10.0 mi ENE 8.1 mph 19.6 mph N/A   Clear
2:58 PM 91.8 °F 29.8 °F 11% 29.97 in 10.0 mi NNW 5.8 mph - N/A   Clear
3:58 PM 92.1 °F 27.7 °F 10% 29.95 in 10.0 mi ENE 8.1 mph 19.6 mph N/A   Clear
4:58 PM 91.8 °F 27.5 °F 10% 29.94 in 10.0 mi NNE 12.7 mph - N/A   Clear
5:58 PM 91.2 °F 27.0 °F 10% 29.94 in 10.0 mi NNE 10.4 mph - N/A   Clear
7:57 PM 85.3 °F 22.6 °F 10% 29.91 in 10.0 mi ENE 1.2 mph - N/A   Clear
8:55 PM 79.0 °F 21.0 °F 12% 29.92 in 10.0 mi East 2.3 mph - N/A   Clear
9:55 PM 79.5 °F 21.9 °F 12% 29.92 in 10.0 mi NE 1.2 mph - N/A   Clear
10:55 PM 73.6 °F 20.5 °F 14% 29.93 in 10.0 mi ENE 2.3 mph - N/A   Clear
11:58 PM 70.7 °F 20.3 °F 15% 29.93 in 10.0 mi NE 2.3 mph - N/A   Clear